Flag for Germany Weather past 2 weeks in Heidelberg, Baden-Württemberg, Germany

Now
63 °F

Broken clouds.


Feels Like: 63 °F
Forecast: 49 / 69 °F
Wind: 5 mph from Northwest

Location: Baden Wurttemberg - Neuostheim

Current Time: Sep 1, 2014 at 1:53:11 PM

Latest Report: Sep 1, 2014 at 1:20 PM


Visibility: N/A

Pressure: 30.15 "Hg

Humidity: 64%

Dew point: 50 °F

Location of HeidelbergLocation

Historic Weather in Heidelberg — Graph

°F

Heidelberg temperature yesterday

Maximum temperature yesterday: 66 °F (at 2:50 PM)
Minimum temperature yesterday: 59 °F (at 7:50 AM)
Average temperature yesterday: 62 °F

Past Weeks' High & Low Weather Summary

 TemperatureHumidityPressure
High77 °F (Aug 29, 3:50 PM)100% (Aug 19, 5:50 AM)30.15 "Hg (Aug 19, 5:50 AM)
Low48 °F (Aug 20, 5:50 AM)33% (Aug 21, 4:20 PM)29.65 "Hg (Aug 26, 5:50 AM)
Average63 °F67%29.98 "Hg
* Reported Aug 17 12:20 PM — Sep 1 12:50 PM, Heidelberg, Weather by CustomWeather, © 2014

Note: Actual official high and low records may vary slightly from our data, if they occured in-between our weather recording intervals... More about our weather records

Advertising

Heidelberg weather history for previous 24 hours

 ConditionsComfort  
Time TempWeatherWind HumidityBarometerVisibility
12:50 PM
Sep 1
64 °FBroken clouds.2 mph60%30.15 "HgN/A
12:20 PM63 °FPartly sunny.3 mph64%30.15 "HgN/A
11:50 AM61 °FBroken clouds.5 mph72%30.15 "HgN/A
11:20 AM61 °FBroken clouds.6 mph72%30.15 "HgN/A
10:50 AM59 °FScattered clouds.6 mph72%30.15 "HgN/A
10:20 AM59 °FPartly sunny.5 mph77%30.15 "HgN/A
9:50 AM57 °FPartly sunny.2 mph82%30.12 "HgN/A
9:20 AM57 °FBroken clouds.5 mph82%30.12 "HgN/A
8:50 AM55 °FBroken clouds.3 mph88%30.12 "HgN/A
8:20 AM55 °FPartly sunny.3 mph88%30.12 "HgN/A
7:50 AM55 °FBroken clouds.2 mph88%30.12 "HgN/A
7:20 AM55 °FPassing clouds.2 mph94%30.09 "HgN/A
6:50 AM54 °FPassing clouds.1 mph94%30.09 "HgN/A
6:20 AM50 °FPassing clouds.No wind94%30.09 "HgN/A
5:50 AM52 °FPassing clouds.1 mph94%30.07 "HgN/A
9:50 PM
Aug 31
59 °FMostly cloudy.No wind88%30.04 "HgN/A
8:50 PM59 °FSunny.3 mph77%30.01 "Hg10 mi
8:20 PM61 °FPassing clouds.6 mph72%30.01 "HgN/A
7:20 PM61 °FPassing clouds.6 mph77%29.98 "HgN/A
6:50 PM61 °FMostly cloudy.8 mph77%29.98 "HgN/A
6:20 PM63 °FBroken clouds.10 mph77%29.98 "HgN/A
5:50 PM63 °FPartly sunny.3 mph77%29.98 "HgN/A
5:20 PM61 °FScattered showers. Partly sunny.7 mph83%29.95 "HgN/A
4:50 PM59 °FCool.16 mph88%29.95 "Hg4 mi
4:20 PM64 °FRain showers. Partly sunny.7 mph73%29.95 "HgN/A
3:50 PM64 °FSprinkles. Broken clouds.10 mph68%29.95 "HgN/A
3:20 PM66 °FScattered clouds.9 mph64%29.95 "HgN/A
2:50 PM66 °FScattered clouds.9 mph64%29.95 "HgN/A
2:20 PM64 °FPartly sunny.10 mph68%29.95 "HgN/A
1:50 PM63 °FPartly sunny.10 mph73%29.98 "HgN/A
1:20 PM63 °FBroken clouds.10 mph68%29.98 "HgN/A
Weather by CustomWeather, © 2014

See weather overviewHow to use our weather pages